User: anonymous   Login
Location: Nebula Knoll Observatory
(43.6666°N, 71.0000°W)
Time: 20:57:50
(UTC-04:00)
Language:

Cosmos 1782 - Orbit

View from above orbital plane
View from above orbital plane
View from above satellite
View from above satellite

Ground track
Ground track

The orbit data is extracted from the following two-line orbital elements,

1 16986U 86074A   15186.19364249  .00001493  00000-0  10279-3 0  9993
2 16986 082.5080 094.2399 0009675 252.9531 107.0636 15.05156909563542
Epoch (UTC): 05 July 2015 04:38:50
Eccentricity: 0.0009675
inclination: 82.5080°
perigee height: 544 km
apogee height: 558 km
right ascension of ascending node: 94.2399°
argument of perigee: 252.9531°
revolutions per day: 15.05156909
mean anomaly at epoch: 107.0636°
orbit number at epoch: 56354

The dashed part of the orbit path shows where the satellite is in the earth's shadow,  

DLR